SCP
0 0 0 0 0 0 0 0 -0 -0 -0 -0 -0 -0 -0 0 0 0 0 0 0 0 0 0 0 0 0 0 0 0 0 0 0 0 0 0 0 0 0 0 0 0 -0 -0 -0 0 -0
0 0 0 0 0 0 0 0 0 -0 -0 -0 -0 -0 -0 -0 -0 0 0 0 0 0 0 0 0 0 0 0 0 0 0 0 0 0 0 0 0 0 0 0 0 0 -0 -0 -0 -0 -0
0 0 0 0 0 0 0 0 -0 -0 -0 -0 -0 -0 -0 -0 -0 -0 0 0 0 0 0 0 0 0 0 0 0 -0 -0 0 0 0 0 0 0 0 0 0 0 0 0 0 -0 -0 -0
0 0 0 0 0 0 -0 0 0 -0 -0 -0 -0 -0 -0 -0 -0 -0 -0 0 0 0 0 0 0 0 0 0 0 -0 -0 0 0 0 0 0 0 0 0 -0 0 0 0 0 0 -0 -0
0 0 0 0 0 0 0 0 0 0 0 0 -0 -0 -0 -0 -0 -0 -0 -0 0 0 0 0 0 0 0 0 0 0 0 0 0 0 0 0 0 0 0 0 0 0 -0 0 0 -0 -0
-0 0 0 0 0 0 0 0 0 0 0 0 0 -0 -0 -0 -0 -0 -0 -0 -0 -0 0 0 0 0 0 0 0 0 0 0 0 0 0 0 0 0 0 0 0 0 -0 -0 0 0 0
-0 0 0 0 0 0 0 0 0 0 0 0 -0 -0 -0 -0 -0 -0 -0 -0 0 0 0 0 0 0 0 -0 0 -0 -0 0 0 0 0 0 0 0 0 0 0 0 0 0 0 0 0
0 0 0 0 0 0 0 0 0 -0 0 0 0 -0 -0 -0 -0 -0 0 0 0 0 0 0 0 0 0 0 0 0 0 0 0 0 0 0 0 0 0 0 0 0 0 0 0 0 0
0 0 0 0 0 0 0 0 0 0 0 0 0 -0 -0 -0 -0 0 0 -0 0 -0 0 0 0 0 0 0 0 0 0 0 0 0 0 0 0 0 0 0 0 0 0 0 0 0 0
0 0 0 0 0 0 0 0 0 0 0 0 0 0 -0 -0 -0 0 0 0 -0 0 0 0 0 0 0 0 0 0 0 0 0 0 0 0 0 0 0 0 0 0 0 0 -0 0 0
0 0 0 0 0 0 0 0 0 0 0 0 0 0 -0 -0 -0 -0 0 -0 0 -0 0 -0 -0 -0 0 0 0 0 0 -0 0 0 0 0 0 0 0 0 0 0 0 0 0 0 0
0 0 0 0 0 0 0 0 0 0 0 0 0 -0 -0 0 0 -0 -0 -0 0 0 0 -0 -0 0 0 0 0 0 0 0 0 0 0 0 0 0 0 0 0 0 0 0 0 0 0
0 0 0 0 0 0 0 0 -0 -0 0 0 0 0 0 0 -0 -0 -0 0 0 0 -0 0 0 0 -0 0 -0 0 0 0 0 0 0 0 0 0 0 0 0 0 0 0 0 0 -0
0 0 0 0 0 0 0 -0 -0 -0 0 0 0 0 0 -0 -0 -0 -0 -0 0 -0 0 0 -0 0 0 0 -0 0 0 0 0 0 0 0 0 0 0 0 0 0 0 0 0 0 0
0 0 0 0 0 0 0 -0 -0 -0 -0 0 0 -0 0 0 -0 -0 0 0 -0 -0 0 0 -0 -0 -0 -0 0 0 0 0 0 0 0 0 0 0 0 0 0 0 0 0 0 0 0
0 0 0 -0 0 0 -0 -0 -0 -0 -0 0 0 0 0 -0 -0 0 0 -0 -0 0 -0 0 0 0 0 0 0 0 0 0 0 0 0 0 0 0 0 0 0 0 0 0 0 0 0
0 0 0 -0 0 0 -0 -0 -0 -0 -0 -0 0 0 0 -0 0 0 -0 0 0 0 -0 0 0 0 0 0 0 0 0 0 0 0 0 0 0 0 0 0 0 0 0 0 -0 0 0
0 0 -0 -0 -0 0 -0 -0 -0 -0 -0 -0 0 0 0 -0 0 0 0 0 0 0 0 0 0 0 0 0 0 0 0 0 0 0 0 0 0 0 0 0 0 0 0 0 0 0 0
0 0 -0 -0 -0 -0 -0 -0 -0 -0 0 -0 0 0 0 0 0 0 0 0 0 -0 -0 0 0 0 0 0 0 0 0 0 0 0 0 0 0 0 0 0 0 0 0 0 0 0 0
0 0 -0 -0 0 -0 -0 -0 -0 -0 -0 0 0 -0 -0 -0 -0 -0 0 0 0 0 -0 0 0 0 0 0 0 0 -0 0 0 0 0 0 0 0 0 0 0 0 0 0 0 0 0
0 0 -0 -0 0 -0 -0 -0 -0 -0 -0 0 0 -0 0 -0 0 0 0 0 -0 -0 0 0 -0 0 0 0 0 0 0 0 0 0 0 0 0 0 0 0 0 0 0 0 0 -0 0
0 0 -0 -0 0 -0 -0 -0 -0 -0 -0 0 0 0 0 0 0 0 -0 0 -0 -0 -0 -0 0 0 0 0 0 0 0 0 0 0 0 0 0 0 0 0 0 0 0 0 0 0 0
0 0 -0 -0 0 -0 -0 -0 -0 -0 -0 -0 -0 -0 -0 0 0 -0 0 0 0 0 -0 -0 -0 0 -0 0 0 0 0 0 0 0 0 0 0 0 0 0 0 0 0 0 0 0 0
0 0 0 -0 0 -0 -0 -0 -0 -0 -0 -0 -0 0 0 0 -0 -0 0 -0 0 -0 0 -0 -0 -0 0 0 0 0 0 0 0 0 0 0 0 0 0 0 0 0 0 0 0 0 0
-0 0 -0 0 -0 -0 -0 -0 -0 -0 -0 -0 0 0 0 0 -0 0 -0 0 0 0 0 -0 -0 0 -0 0 0 0 0 0 0 0 0 0 0 0 0 0 0 0 -0 0 0 0 0
0 0 -0 0 -0 -0 -0 -0 -0 -0 -0 -0 0 -0 -0 0 0 0 0 0 0 0 -0 -0 -0 0 0 0 0 0 0 0 0 0 0 0 0 0 0 0 0 0 0 0 0 0 0
-0 0 -0 0 0 -0 -0 -0 -0 -0 -0 -0 -0 0 0 0 0 0 -0 0 -0 0 0 0 0 -0 0 0 0 0 0 0 0 0 0 0 0 0 0 0 0 0 0 0 0 0 0
0 0 -0 0 0 0 -0 -0 -0 -0 -0 -0 -0 0 0 0 0 0 0 0 0 0 0 0 0 0 0 0 0 0 0 0 0 0 0 0 0 0 0 0 0 0 0 0 0 0 0
-0 -0 -0 0 0 0 0 0 0 -0 -0 -0 0 0 0 0 0 0 0 0 0 0 0 0 0 0 0 0 0 0 0 0 0 0 0 0 0 0 0 0 0 0 0 0 0 0 0
Wind_Speed_500mb
37 39 39 38 38 38 37 36 34 33 31 31 32 32 32 32 31 30 29 29 24 22 23 21 20 13 12 9 30 16 12 10 25 26 39 38 39 42 24 26 16 14 22 43 39 42 46
38 41 42 43 43 42 40 38 37 35 34 33 32 32 32 31 32 32 31 26 27 21 18 19 18 14 11 11 6 14 18 12 26 34 41 36 30 36 37 39 22 29 39 23 26 49 48
37 41 43 45 44 41 39 38 38 38 37 36 34 32 31 31 30 30 29 27 23 22 14 16 15 15 20 40 10 9 23 21 24 35 38 31 34 40 33 21 37 32 10 16 18 54 24
36 41 44 45 43 39 38 37 37 38 41 41 39 36 34 33 29 26 25 23 20 13 12 13 13 15 21 13 14 23 7 15 30 28 34 27 28 37 31 35 42 11 13 7 10 34 24
37 42 44 44 40 38 38 38 39 41 42 42 40 35 31 30 27 23 18 9 5 3 9 12 11 10 21 13 39 22 24 27 29 28 28 27 26 19 24 12 13 13 12 12 9 37 27
38 42 44 43 41 39 39 40 40 40 42 43 41 35 29 25 20 12 4 5 10 10 11 12 10 10 30 34 28 30 30 29 38 30 32 37 7 1 10 6 14 12 16 10 16 23 22
39 43 43 42 40 40 42 41 40 38 38 41 42 35 26 21 15 7 8 5 4 3 20 25 24 22 26 18 27 37 35 41 36 38 13 26 9 14 22 23 32 25 16 21 27 20 25
39 42 41 40 40 43 45 45 40 33 33 36 40 32 18 16 13 8 14 18 25 26 17 35 44 42 47 19 32 37 35 26 28 16 19 8 16 24 29 31 35 33 28 9 17 27 14
40 42 40 38 40 45 47 46 41 33 31 33 34 28 15 14 18 14 24 16 18 23 16 39 44 38 36 45 38 39 44 36 17 16 18 17 23 35 32 27 30 26 19 11 13 30 18
39 41 39 37 39 44 47 47 44 36 29 28 27 26 17 21 25 25 41 29 31 30 5 12 24 21 29 40 20 40 41 34 11 20 17 19 39 27 27 23 22 18 20 14 39 34 13
38 40 39 37 36 41 45 47 46 42 32 28 24 21 20 23 31 23 25 22 26 17 7 28 25 14 23 13 19 41 41 46 20 19 15 19 25 27 25 29 22 19 17 30 21 15 18
37 39 39 37 35 39 44 47 47 44 38 31 28 25 23 23 27 19 36 34 28 4 6 6 17 13 22 32 33 47 38 41 33 19 17 27 38 22 15 21 20 22 14 12 13 9 14
40 36 39 38 35 37 43 47 46 44 42 33 31 27 28 27 19 15 21 27 6 4 39 8 11 16 21 16 28 27 23 17 11 6 11 20 25 16 20 7 12 11 3 6 3 6 15
41 36 38 38 36 36 41 46 46 44 46 36 29 32 33 20 5 19 38 11 4 2 16 31 53 17 23 22 22 23 18 14 24 23 10 12 11 18 9 8 11 14 12 9 8 9 18
41 38 36 38 36 35 39 44 46 45 47 43 27 24 32 17 2 13 20 9 5 10 14 22 37 9 17 26 20 22 17 21 26 22 8 8 17 9 16 13 18 16 14 19 8 10 7
49 38 36 36 36 34 37 44 47 45 46 43 26 23 26 18 21 6 18 4 8 13 28 26 18 9 21 20 21 11 18 22 14 13 12 13 9 15 23 22 11 10 3 10 5 3 3
48 38 37 36 34 34 36 43 47 47 45 29 24 13 10 15 33 43 5 11 14 28 17 14 23 14 7 22 37 18 3 25 31 21 20 13 1 16 7 6 4 5 9 5 2 2 10
45 39 36 34 32 31 31 39 43 46 45 27 7 6 3 8 9 13 8 14 10 9 10 7 9 19 24 23 21 18 16 21 34 21 11 12 5 7 15 8 7 9 10 11 7 11 6
42 36 35 33 31 30 30 36 39 42 42 48 22 14 5 15 1 6 13 11 13 22 18 13 8 10 14 11 9 8 10 13 24 15 9 12 10 3 11 2 6 8 14 14 9 3 13
39 34 32 32 30 28 29 34 34 34 32 40 12 7 16 33 38 22 14 7 10 7 3 9 8 13 8 6 8 7 10 6 13 14 10 7 6 5 4 6 6 16 15 18 9 3 7
36 31 30 31 30 27 26 35 36 22 26 31 7 5 6 7 11 12 15 16 19 13 9 6 8 3 11 5 11 11 18 3 7 3 6 5 6 11 8 2 13 19 12 26 11 15 13
33 27 27 27 27 24 22 31 35 27 26 10 14 12 30 3 20 10 10 11 20 19 20 20 13 24 14 14 6 5 13 12 12 13 9 12 7 14 16 15 15 20 33 20 2 31 25
31 23 25 21 21 20 15 19 27 27 20 17 33 24 15 21 17 14 9 9 9 6 8 22 22 15 25 19 17 10 17 31 2 7 10 7 6 9 9 14 12 11 18 26 30 29 31
27 22 18 16 17 18 15 13 19 22 27 23 32 19 10 4 13 11 15 24 20 19 9 22 26 17 11 10 7 14 27 25 16 22 17 8 4 5 7 4 1 5 16 14 14 21 40
26 19 17 16 18 19 18 15 9 13 13 18 30 20 13 9 22 11 16 7 13 8 12 16 14 11 12 9 3 2 5 6 9 10 11 8 5 6 3 5 9 6 9 11 20 9 38
24 16 16 15 17 18 17 15 12 9 8 10 19 26 11 15 9 10 8 4 8 4 8 19 6 5 10 5 5 1 6 9 7 6 10 14 5 6 7 4 7 5 17 25 13 6 33
21 13 13 12 14 17 16 12 12 9 8 8 12 28 13 10 18 12 12 12 13 17 9 15 4 9 2 4 4 6 2 5 5 10 7 3 6 2 9 6 6 6 17 12 9 9 32
19 12 10 10 9 12 13 12 11 8 5 2 6 28 16 10 15 12 11 12 19 29 8 2 4 5 5 3 6 3 4 1 6 8 10 4 3 4 4 3 3 21 11 7 11 37 48
17 13 11 10 8 10 10 10 8 7 3 4 10 10 19 7 9 5 7 5 5 11 21 14 7 7 13 7 4 6 0 1 8 3 9 4 5 2 6 5 13 38 32 24 33 39 39
Wind_Direction_500mb
6 6 3 359 353 349 345 341 337 333 329 325 320 316 313 311 310 310 308 307 301 294 290 284 276 268 271 265 250 246 322 214 201 204 197 207 241 234 226 244 125 135 208 212 224 197 160
2 2 360 356 353 349 347 346 344 340 336 332 326 320 316 312 311 310 307 302 301 291 282 274 266 256 235 248 238 230 268 247 211 204 194 204 232 221 243 251 249 191 199 194 183 204 166
359 359 357 355 354 353 352 350 347 344 341 336 332 327 322 318 314 311 306 304 297 289 263 253 247 238 240 228 157 284 256 221 205 197 188 209 229 250 254 289 276 190 181 286 187 173 168
360 359 358 357 357 358 356 355 355 349 345 341 336 331 327 321 318 312 307 305 298 272 238 222 219 229 254 209 203 215 217 212 175 196 191 213 251 259 283 280 291 223 234 178 161 158 140
2 0 359 359 360 359 359 357 354 353 350 349 346 343 334 326 321 315 307 319 328 232 183 176 182 227 260 222 199 184 210 197 172 194 207 237 240 268 286 289 303 257 224 198 309 163 149
3 1 1 0 1 1 359 355 355 355 355 353 350 349 345 339 336 331 356 72 101 111 136 162 171 276 239 209 200 193 201 185 181 191 229 243 134 12 289 279 234 227 229 272 166 137 96
2 2 2 2 2 0 359 355 352 353 355 355 353 352 355 1 359 42 85 26 297 148 194 210 203 232 305 180 186 191 192 191 183 200 190 214 117 215 234 242 250 260 209 213 64 52 84
2 2 2 3 1 1 359 356 350 347 353 356 354 353 8 21 22 357 326 308 334 325 280 274 257 262 268 222 183 190 183 188 188 194 198 134 218 232 230 235 246 256 268 59 107 77 76
2 2 1 1 2 2 1 360 354 348 348 354 355 355 354 350 341 317 305 306 343 317 295 287 240 244 252 175 183 180 183 195 198 194 187 211 230 221 240 239 241 247 251 174 158 98 103
0 360 358 359 1 1 1 360 357 351 344 348 354 356 339 327 325 321 295 303 331 327 303 260 177 255 254 169 187 190 192 207 183 203 209 216 251 229 232 250 234 246 240 244 155 157 150
354 356 354 354 357 358 357 357 356 354 344 333 337 342 335 315 309 314 353 355 322 314 287 147 173 212 219 211 181 185 191 222 231 199 192 237 231 248 224 241 241 248 253 130 152 168 107
349 350 351 348 349 353 353 353 353 351 345 331 321 314 313 317 306 307 319 331 307 294 257 217 140 155 200 209 252 169 180 229 252 264 228 235 227 234 247 225 244 263 278 184 170 143 220
349 343 346 346 343 346 348 348 349 347 342 327 317 307 303 288 298 358 348 316 302 6 337 356 159 191 213 194 232 181 170 214 231 225 270 240 250 223 249 253 266 277 220 287 179 147 247
344 341 341 344 341 341 344 345 345 346 343 333 306 301 298 290 318 353 326 329 61 194 301 288 288 197 209 216 226 159 164 194 240 252 237 214 241 238 180 214 239 254 203 182 175 193 225
339 341 338 340 338 338 341 344 344 343 340 334 312 301 285 303 127 50 48 59 310 291 234 296 329 194 213 221 217 155 177 206 223 232 242 250 215 204 183 180 214 282 236 234 282 254 7
341 338 337 336 336 337 340 342 341 339 339 333 334 305 286 303 229 114 52 299 250 232 284 320 338 288 25 309 192 163 184 208 255 224 77 11 357 288 217 209 227 175 305 11 312 129 154
339 333 334 335 336 337 341 343 343 339 342 339 339 320 299 100 130 52 278 252 266 253 305 16 4 11 341 26 29 11 79 43 15 7 2 35 61 299 52 152 174 56 322 320 28 132 151
336 330 333 335 336 337 343 345 345 340 345 346 314 285 259 173 114 168 187 206 303 342 335 69 30 40 26 33 22 33 350 22 354 1 6 6 273 260 247 257 237 257 250 219 140 298 102
334 328 331 333 336 340 343 347 348 342 345 347 327 265 51 203 252 185 176 117 39 14 10 10 37 102 18 74 41 102 281 9 348 350 41 344 335 10 307 302 278 249 277 280 273 135 161
331 330 330 334 337 341 342 347 348 342 340 341 318 340 12 38 28 33 16 77 116 42 18 54 8 326 45 166 204 191 179 65 4 21 343 46 330 58 256 285 337 338 260 271 248 4 68
330 334 332 338 339 343 345 351 350 337 329 340 276 58 321 13 344 86 16 13 51 20 13 342 164 255 89 52 356 354 17 117 208 342 291 134 315 351 324 295 352 328 276 246 265 148 128
333 337 334 338 340 343 349 356 0 338 342 21 359 8 346 31 286 96 61 69 44 22 356 27 6 6 103 72 79 15 13 356 45 329 9 355 64 303 311 323 18 338 331 226 290 96 102
330 333 329 334 339 342 345 1 11 21 22 32 4 351 1 272 22 65 45 39 53 84 50 30 354 358 46 29 34 326 298 304 259 349 333 56 54 332 255 59 18 350 17 9 89 111 126
328 332 332 332 341 340 342 347 20 27 30 22 2 334 303 63 73 32 55 53 35 17 37 58 1 22 2 348 334 305 302 296 16 328 2 8 24 16 292 14 97 290 31 355 65 126 108
324 332 336 337 341 345 344 334 355 22 34 16 10 8 338 321 132 142 75 111 161 216 80 67 46 355 337 310 329 191 302 344 240 242 2 330 49 347 125 304 286 258 58 14 103 29 141
317 322 321 328 341 350 347 338 330 326 358 15 7 7 7 314 54 78 111 253 295 249 150 120 90 310 319 281 248 249 61 11 7 111 16 353 102 110 342 301 237 185 41 22 45 95 141
304 304 301 323 338 346 350 357 340 333 332 6 15 4 1 304 87 24 40 21 8 349 73 95 118 185 255 295 65 61 28 335 348 351 326 18 13 306 265 246 52 33 43 340 104 220 135
294 293 286 305 318 343 353 1 2 345 345 338 23 7 10 327 40 42 63 25 15 8 34 134 245 348 265 13 67 4 68 282 13 350 325 328 179 231 291 328 121 5 35 63 133 80 92
289 291 273 306 305 329 343 1 4 4 8 54 77 359 354 324 329 328 23 45 33 16 349 347 40 315 36 32 56 132 117 262 154 295 302 4 109 161 106 146 84 77 97 92 94 94 91
Wind_Speed_850mb
37 39 39 38 38 38 37 36 34 33 31 31 32 32 32 32 31 30 29 29 24 22 23 21 20 13 12 9 30 16 12 10 25 26 39 38 39 42 24 26 16 14 22 43 39 42 46
38 41 42 43 43 42 40 38 37 35 34 33 32 32 32 31 32 32 31 26 27 21 18 19 18 14 11 11 6 14 18 12 26 34 41 36 30 36 37 39 22 29 39 23 26 49 48
37 41 43 45 44 41 39 38 38 38 37 36 34 32 31 31 30 30 29 27 23 22 14 16 15 15 20 40 10 9 23 21 24 35 38 31 34 40 33 21 37 32 10 16 18 54 24
36 41 44 45 43 39 38 37 37 38 41 41 39 36 34 33 29 26 25 23 20 13 12 13 13 15 21 13 14 23 7 15 30 28 34 27 28 37 31 35 42 11 13 7 10 34 24
37 42 44 44 40 38 38 38 39 41 42 42 40 35 31 30 27 23 18 9 5 3 9 12 11 10 21 13 39 22 24 27 29 28 28 27 26 19 24 12 13 13 12 12 9 37 27
38 42 44 43 41 39 39 40 40 40 42 43 41 35 29 25 20 12 4 5 10 10 11 12 10 10 30 34 28 30 30 29 38 30 32 37 7 1 10 6 14 12 16 10 16 23 22
39 43 43 42 40 40 42 41 40 38 38 41 42 35 26 21 15 7 8 5 4 3 20 25 24 22 26 18 27 37 35 41 36 38 13 26 9 14 22 23 32 25 16 21 27 20 25
39 42 41 40 40 43 45 45 40 33 33 36 40 32 18 16 13 8 14 18 25 26 17 35 44 42 47 19 32 37 35 26 28 16 19 8 16 24 29 31 35 33 28 9 17 27 14
40 42 40 38 40 45 47 46 41 33 31 33 34 28 15 14 18 14 24 16 18 23 16 39 44 38 36 45 38 39 44 36 17 16 18 17 23 35 32 27 30 26 19 11 13 30 18
39 41 39 37 39 44 47 47 44 36 29 28 27 26 17 21 25 25 41 29 31 30 5 12 24 21 29 40 20 40 41 34 11 20 17 19 39 27 27 23 22 18 20 14 39 34 13
38 40 39 37 36 41 45 47 46 42 32 28 24 21 20 23 31 23 25 22 26 17 7 28 25 14 23 13 19 41 41 46 20 19 15 19 25 27 25 29 22 19 17 30 21 15 18
37 39 39 37 35 39 44 47 47 44 38 31 28 25 23 23 27 19 36 34 28 4 6 6 17 13 22 32 33 47 38 41 33 19 17 27 38 22 15 21 20 22 14 12 13 9 14
40 36 39 38 35 37 43 47 46 44 42 33 31 27 28 27 19 15 21 27 6 4 39 8 11 16 21 16 28 27 23 17 11 6 11 20 25 16 20 7 12 11 3 6 3 6 15
41 36 38 38 36 36 41 46 46 44 46 36 29 32 33 20 5 19 38 11 4 2 16 31 53 17 23 22 22 23 18 14 24 23 10 12 11 18 9 8 11 14 12 9 8 9 18
41 38 36 38 36 35 39 44 46 45 47 43 27 24 32 17 2 13 20 9 5 10 14 22 37 9 17 26 20 22 17 21 26 22 8 8 17 9 16 13 18 16 14 19 8 10 7
49 38 36 36 36 34 37 44 47 45 46 43 26 23 26 18 21 6 18 4 8 13 28 26 18 9 21 20 21 11 18 22 14 13 12 13 9 15 23 22 11 10 3 10 5 3 3
48 38 37 36 34 34 36 43 47 47 45 29 24 13 10 15 33 43 5 11 14 28 17 14 23 14 7 22 37 18 3 25 31 21 20 13 1 16 7 6 4 5 9 5 2 2 10
45 39 36 34 32 31 31 39 43 46 45 27 7 6 3 8 9 13 8 14 10 9 10 7 9 19 24 23 21 18 16 21 34 21 11 12 5 7 15 8 7 9 10 11 7 11 6
42 36 35 33 31 30 30 36 39 42 42 48 22 14 5 15 1 6 13 11 13 22 18 13 8 10 14 11 9 8 10 13 24 15 9 12 10 3 11 2 6 8 14 14 9 3 13
39 34 32 32 30 28 29 34 34 34 32 40 12 7 16 33 38 22 14 7 10 7 3 9 8 13 8 6 8 7 10 6 13 14 10 7 6 5 4 6 6 16 15 18 9 3 7
36 31 30 31 30 27 26 35 36 22 26 31 7 5 6 7 11 12 15 16 19 13 9 6 8 3 11 5 11 11 18 3 7 3 6 5 6 11 8 2 13 19 12 26 11 15 13
33 27 27 27 27 24 22 31 35 27 26 10 14 12 30 3 20 10 10 11 20 19 20 20 13 24 14 14 6 5 13 12 12 13 9 12 7 14 16 15 15 20 33 20 2 31 25
31 23 25 21 21 20 15 19 27 27 20 17 33 24 15 21 17 14 9 9 9 6 8 22 22 15 25 19 17 10 17 31 2 7 10 7 6 9 9 14 12 11 18 26 30 29 31
27 22 18 16 17 18 15 13 19 22 27 23 32 19 10 4 13 11 15 24 20 19 9 22 26 17 11 10 7 14 27 25 16 22 17 8 4 5 7 4 1 5 16 14 14 21 40
26 19 17 16 18 19 18 15 9 13 13 18 30 20 13 9 22 11 16 7 13 8 12 16 14 11 12 9 3 2 5 6 9 10 11 8 5 6 3 5 9 6 9 11 20 9 38
24 16 16 15 17 18 17 15 12 9 8 10 19 26 11 15 9 10 8 4 8 4 8 19 6 5 10 5 5 1 6 9 7 6 10 14 5 6 7 4 7 5 17 25 13 6 33
21 13 13 12 14 17 16 12 12 9 8 8 12 28 13 10 18 12 12 12 13 17 9 15 4 9 2 4 4 6 2 5 5 10 7 3 6 2 9 6 6 6 17 12 9 9 32
19 12 10 10 9 12 13 12 11 8 5 2 6 28 16 10 15 12 11 12 19 29 8 2 4 5 5 3 6 3 4 1 6 8 10 4 3 4 4 3 3 21 11 7 11 37 48
17 13 11 10 8 10 10 10 8 7 3 4 10 10 19 7 9 5 7 5 5 11 21 14 7 7 13 7 4 6 0 1 8 3 9 4 5 2 6 5 13 38 32 24 33 39 39
Wind_Direction_850mb
6 6 3 359 353 349 345 341 337 333 329 325 320 316 313 311 310 310 308 307 301 294 290 284 276 268 271 265 250 246 322 214 201 204 197 207 241 234 226 244 125 135 208 212 224 197 160
2 2 360 356 353 349 347 346 344 340 336 332 326 320 316 312 311 310 307 302 301 291 282 274 266 256 235 248 238 230 268 247 211 204 194 204 232 221 243 251 249 191 199 194 183 204 166
359 359 357 355 354 353 352 350 347 344 341 336 332 327 322 318 314 311 306 304 297 289 263 253 247 238 240 228 157 284 256 221 205 197 188 209 229 250 254 289 276 190 181 286 187 173 168
360 359 358 357 357 358 356 355 355 349 345 341 336 331 327 321 318 312 307 305 298 272 238 222 219 229 254 209 203 215 217 212 175 196 191 213 251 259 283 280 291 223 234 178 161 158 140
2 0 359 359 360 359 359 357 354 353 350 349 346 343 334 326 321 315 307 319 328 232 183 176 182 227 260 222 199 184 210 197 172 194 207 237 240 268 286 289 303 257 224 198 309 163 149
3 1 1 0 1 1 359 355 355 355 355 353 350 349 345 339 336 331 356 72 101 111 136 162 171 276 239 209 200 193 201 185 181 191 229 243 134 12 289 279 234 227 229 272 166 137 96
2 2 2 2 2 0 359 355 352 353 355 355 353 352 355 1 359 42 85 26 297 148 194 210 203 232 305 180 186 191 192 191 183 200 190 214 117 215 234 242 250 260 209 213 64 52 84
2 2 2 3 1 1 359 356 350 347 353 356 354 353 8 21 22 357 326 308 334 325 280 274 257 262 268 222 183 190 183 188 188 194 198 134 218 232 230 235 246 256 268 59 107 77 76
2 2 1 1 2 2 1 360 354 348 348 354 355 355 354 350 341 317 305 306 343 317 295 287 240 244 252 175 183 180 183 195 198 194 187 211 230 221 240 239 241 247 251 174 158 98 103
0 360 358 359 1 1 1 360 357 351 344 348 354 356 339 327 325 321 295 303 331 327 303 260 177 255 254 169 187 190 192 207 183 203 209 216 251 229 232 250 234 246 240 244 155 157 150
354 356 354 354 357 358 357 357 356 354 344 333 337 342 335 315 309 314 353 355 322 314 287 147 173 212 219 211 181 185 191 222 231 199 192 237 231 248 224 241 241 248 253 130 152 168 107
349 350 351 348 349 353 353 353 353 351 345 331 321 314 313 317 306 307 319 331 307 294 257 217 140 155 200 209 252 169 180 229 252 264 228 235 227 234 247 225 244 263 278 184 170 143 220
349 343 346 346 343 346 348 348 349 347 342 327 317 307 303 288 298 358 348 316 302 6 337 356 159 191 213 194 232 181 170 214 231 225 270 240 250 223 249 253 266 277 220 287 179 147 247
344 341 341 344 341 341 344 345 345 346 343 333 306 301 298 290 318 353 326 329 61 194 301 288 288 197 209 216 226 159 164 194 240 252 237 214 241 238 180 214 239 254 203 182 175 193 225
339 341 338 340 338 338 341 344 344 343 340 334 312 301 285 303 127 50 48 59 310 291 234 296 329 194 213 221 217 155 177 206 223 232 242 250 215 204 183 180 214 282 236 234 282 254 7
341 338 337 336 336 337 340 342 341 339 339 333 334 305 286 303 229 114 52 299 250 232 284 320 338 288 25 309 192 163 184 208 255 224 77 11 357 288 217 209 227 175 305 11 312 129 154
339 333 334 335 336 337 341 343 343 339 342 339 339 320 299 100 130 52 278 252 266 253 305 16 4 11 341 26 29 11 79 43 15 7 2 35 61 299 52 152 174 56 322 320 28 132 151
336 330 333 335 336 337 343 345 345 340 345 346 314 285 259 173 114 168 187 206 303 342 335 69 30 40 26 33 22 33 350 22 354 1 6 6 273 260 247 257 237 257 250 219 140 298 102
334 328 331 333 336 340 343 347 348 342 345 347 327 265 51 203 252 185 176 117 39 14 10 10 37 102 18 74 41 102 281 9 348 350 41 344 335 10 307 302 278 249 277 280 273 135 161
331 330 330 334 337 341 342 347 348 342 340 341 318 340 12 38 28 33 16 77 116 42 18 54 8 326 45 166 204 191 179 65 4 21 343 46 330 58 256 285 337 338 260 271 248 4 68
330 334 332 338 339 343 345 351 350 337 329 340 276 58 321 13 344 86 16 13 51 20 13 342 164 255 89 52 356 354 17 117 208 342 291 134 315 351 324 295 352 328 276 246 265 148 128
333 337 334 338 340 343 349 356 0 338 342 21 359 8 346 31 286 96 61 69 44 22 356 27 6 6 103 72 79 15 13 356 45 329 9 355 64 303 311 323 18 338 331 226 290 96 102
330 333 329 334 339 342 345 1 11 21 22 32 4 351 1 272 22 65 45 39 53 84 50 30 354 358 46 29 34 326 298 304 259 349 333 56 54 332 255 59 18 350 17 9 89 111 126
328 332 332 332 341 340 342 347 20 27 30 22 2 334 303 63 73 32 55 53 35 17 37 58 1 22 2 348 334 305 302 296 16 328 2 8 24 16 292 14 97 290 31 355 65 126 108
324 332 336 337 341 345 344 334 355 22 34 16 10 8 338 321 132 142 75 111 161 216 80 67 46 355 337 310 329 191 302 344 240 242 2 330 49 347 125 304 286 258 58 14 103 29 141
317 322 321 328 341 350 347 338 330 326 358 15 7 7 7 314 54 78 111 253 295 249 150 120 90 310 319 281 248 249 61 11 7 111 16 353 102 110 342 301 237 185 41 22 45 95 141
304 304 301 323 338 346 350 357 340 333 332 6 15 4 1 304 87 24 40 21 8 349 73 95 118 185 255 295 65 61 28 335 348 351 326 18 13 306 265 246 52 33 43 340 104 220 135
294 293 286 305 318 343 353 1 2 345 345 338 23 7 10 327 40 42 63 25 15 8 34 134 245 348 265 13 67 4 68 282 13 350 325 328 179 231 291 328 121 5 35 63 133 80 92
289 291 273 306 305 329 343 1 4 4 8 54 77 359 354 324 329 328 23 45 33 16 349 347 40 315 36 32 56 132 117 262 154 295 302 4 109 161 106 146 84 77 97 92 94 94 91